Regional Weather Roundup
Issued by NWS Cleveland, OH

Home | Current Version | Previous Version | Graphics & Text | Print | Product List | Glossary On
Versions: 1 2 3 4 5 6 7 8 9 10 11 12 13 14 15 16 17 18 19 20 21 22 23 24 25 26 27 28 29 30 31 32 33 34 35 36 37 38 39 40 41 42 43 44 45 46 47 48 49 50
000
ASUS41 KCLE 030100
RWRCLE
OHIO REGIONAL WEATHER ROUNDUP
NATIONAL WEATHER SERVICE WILMINGTON, OH
900 PM EDT MON MAY 02 2016

NOTE: "FAIR" INDICATES FEW OR NO CLOUDS BELOW 12,000 FEET WITH NO
SIGNIFICANT WEATHER AND/OR OBSTRUCTIONS TO VISIBILITY.

OHZ001>008-015>018-024>027-034-035-043-044-030200-
   NORTHWEST OHIO

CITY           SKY/WX    TMP DP  RH WIND       PRES   REMARKS
DEFIANCE       CLOUDY    50  46  86 N6        29.99S
FINDLAY        CLOUDY    51  43  74 NE8       29.97S
TOLEDO EXPRESS CLOUDY    50  44  80 NE5       29.98F
TOLEDO EXEC    CLOUDY    51  44  77 E5        29.99F
LIMA           CLOUDY    51  47  86 NE10      29.96F
$$

OHZ009>014-019>023-028>033-038-089-030200-
   NORTHEAST OHIO

CITY           SKY/WX    TMP DP  RH WIND       PRES   REMARKS
CLE-HOPKINS    MOCLDY    47  42  83 N5        30.00F
CLE-LAKEFRONT  FAIR      48  44  86 N8        29.98F
CUY CO. ARPT   MOCLDY    46  43  87 NE7       29.98F
LORAIN-ELYRIA  FAIR      46  40  79 NE5       29.99S
ASHTABULA      FAIR      45  42  89 N3        29.97F
AKRON-CANTON   CLOUDY    50  44  80 N7        29.96R
WOOSTER        NOT AVBL
MANSFIELD      CLOUDY    48  44  86 NE7       29.96F
YOUNGSTOWN     CLOUDY    47  42  83 N5        29.96R
$$

OHZ042-051>053-060>062-070>072-077>081-030200-
  SOUTHWEST OHIO

CITY           SKY/WX    TMP DP  RH WIND       PRES   REMARKS
CINC-COVINGTON MOCLDY    59  51  75 NW9       29.92F
CINC-LUNKEN    CLOUDY    61  54  77 N6        29.92S
HAMILTON       CLOUDY    59  52  77 N8        29.94R
DAYTON         NOT AVBL
WRIGHT-PAT AFB NOT AVBL
DAYTON GENERAL CLOUDY    56  49  77 NE9       29.93R
WILMINGTON     CLOUDY    54  51  90 NE14      29.93S
$$

OHZ036-037-039>041-045>050-054>059-063>069-073>076-082>088-030200-
  CENTRAL AND SOUTHEAST OHIO

CITY           SKY/WX    TMP DP  RH WIND       PRES   REMARKS
COLUMBUS       CLOUDY    53  48  83 N10       29.93S
OSU AIRPORT    CLOUDY    53  48  83 N7        29.94S
BOLTON FIELD   NOT AVBL
RICKENBACK AFB NOT AVBL
NEWARK         FAIR      54  47  77 N3        29.94R
MARION         FAIR      48  44  86 NE9       29.97S
LANCASTER      CLOUDY    56  51  84 NE9       29.93R
ZANESVILLE     CLOUDY    56  48  74 N6        29.94R
NEW PHILLY     CLOUDY    53  46  77 VRB3      29.95S
$$




USA.gov is the U.S. government's official web portal to all federal, state and local government web resources and services.